Weather History for DeKalb, IL

Change the Weather History Date:

Friday, January 25, 2013

  Actual Average (KARR) Record (KARR)
Temperature  
Mean Temperature 22 °F 21 °F  
Max Temperature 28 °F 29 °F 48 °F (2002)
Min Temperature 15 °F 12 °F -20 °F (2008)
Degree Days  
Heating Degree Days 44 44  
Month to date heating degree days 1102  
Since 1 July heating degree days 3751  
Cooling Degree Days 0 0  
Month to date cooling degree days 0  
Year to date cooling degree days 0  
Moisture  
Dew Point 13 °F    
Average Humidity 73    
Maximum Humidity 93    
Minimum Humidity 51    
Precipitation  
Precipitation 0.01 in 0.06 in 0.00 in (2014)
Month to date precipitation 1.11  
Year to date precipitation 1.11  
Sea Level Pressure  
Sea Level Pressure 30.08 in    
Wind  
Wind Speed 12 mph (SW)    
Max Wind Speed 21 mph    
Max Gust Speed 25 mph    
Visibility 9 miles    
Events Snow    
T = Trace of Precipitation, MM = Missing Value Source: NWS Daily Summary

Daily Weather History Graph

Daily Weather History Graph

Search for Another Location

Airport:

Trip Planner

Search our weather history database for the weather conditions in past years. The results will help you decide how hot, cold, wet, or windy it might be!

Date:

Astronomy

Jan. 25, 2013 Rise Set
Actual Time 7:13 AM CST 5:01 PM CST
Civil Twilight 6:43 AM CST 5:31 PM CST
Nautical Twilight 6:09 AM CST 6:05 PM CST
Astronomical Twilight 5:36 AM CST 6:38 PM CST
Moon 3:58 PM CST (1/25) 5:53 AM CST (1/25)
Length of Visible Light 10h 47m
Length of Day
9h 47m
Waxing Gibbous, 98% of the Moon is Illuminated
Jan 25
Waxing Gibbous
Jan 26
Full
Feb 3
Last Quarter
Feb 10
New
Feb 17
First Quarter

Hourly Weather History & Observations

Time (CST) Temp. Windchill Dew Point Humidity Pressure Visibility Wind Dir Wind Speed Gust Speed Precip Events Conditions
12:15 AM 17.6 °F 5.0 °F 2.5 °F 52% 30.33 in 10.0 mi SE 11.5 mph - N/A   Overcast
12:35 AM 17.6 °F 5.0 °F 2.3 °F 51% 30.31 in 10.0 mi SE 11.5 mph - N/A   Overcast
12:55 AM 17.6 °F 5.7 °F 3.0 °F 53% 30.27 in 10.0 mi SE 10.4 mph 16.1 mph N/A   Overcast
1:15 AM 17.6 °F 5.7 °F 3.2 °F 53% 30.26 in 10.0 mi SE 10.4 mph - N/A   Mostly Cloudy
1:35 AM 17.6 °F 5.0 °F 3.9 °F 55% 30.26 in 10.0 mi SE 11.5 mph - N/A   Overcast
1:55 AM 17.6 °F 4.3 °F 4.1 °F 56% 30.25 in 10.0 mi SE 12.7 mph - N/A   Overcast
2:15 AM 18.0 °F 6.1 °F 4.5 °F 56% 30.24 in 10.0 mi SE 10.4 mph - N/A   Overcast
2:35 AM 18.0 °F 6.1 °F 5.0 °F 57% 30.24 in 10.0 mi SE 10.4 mph - N/A   Overcast
2:55 AM 17.8 °F 6.6 °F 5.2 °F 58% 30.21 in 10.0 mi SE 9.2 mph - N/A   Overcast
3:15 AM 18.0 °F 5.4 °F 5.4 °F 58% 30.19 in 10.0 mi SE 11.5 mph - N/A   Overcast
3:35 AM 18.0 °F 6.1 °F 5.7 °F 59% 30.18 in 10.0 mi SE 10.4 mph - N/A   Overcast
3:55 AM 18.0 °F 4.8 °F 6.1 °F 60% 30.16 in 10.0 mi SE 12.7 mph - N/A   Overcast
4:15 AM 17.4 °F 4.7 °F 9.0 °F 69% 30.16 in 3.0 mi SSE 11.5 mph - N/A Snow Light Snow
4:35 AM 16.7 °F 3.2 °F 11.1 °F 79% 30.15 in 2.0 mi SSE 12.7 mph - N/A Snow Light Snow
4:55 AM 16.5 °F 3.0 °F 11.8 °F 82% 30.14 in 1.5 mi SSE 12.7 mph - N/A Snow Light Snow
5:15 AM 16.3 °F 3.4 °F 12.6 °F 85% 30.14 in 1.8 mi SSE 11.5 mph - N/A Snow Light Snow
5:35 AM 16.3 °F 5.7 °F 12.7 °F 86% 30.15 in 2.0 mi South 8.1 mph - N/A Snow Light Snow
5:55 AM 16.3 °F 4.1 °F 12.9 °F 86% 30.13 in 1.8 mi South 10.4 mph - 0.01 in Snow Light Snow
6:15 AM 16.3 °F 5.7 °F 12.9 °F 86% 30.13 in 5.0 mi South 8.1 mph - N/A Snow Light Snow
6:35 AM 16.3 °F 3.4 °F 12.9 °F 86% 30.11 in 10.0 mi SSE 11.5 mph - N/A Snow Light Snow
6:55 AM 16.3 °F 4.1 °F 13.1 °F 87% 30.11 in 7.0 mi South 10.4 mph - N/A Snow Light Snow
7:15 AM 15.8 °F 3.4 °F 14.0 °F 93% 30.11 in 5.0 mi South 10.4 mph - N/A Snow Light Snow
7:35 AM 16.5 °F 4.3 °F 13.1 °F 86% 30.11 in 5.0 mi South 10.4 mph - N/A Snow Light Snow
7:55 AM 16.7 °F 3.8 °F 13.1 °F 86% 30.08 in 7.0 mi South 11.5 mph - N/A Snow Light Snow
8:15 AM 16.7 °F 2.6 °F 13.5 °F 87% 30.07 in 10.0 mi South 13.8 mph - N/A   Overcast
8:35 AM 17.2 °F 3.9 °F 13.8 °F 86% 30.08 in 10.0 mi South 12.7 mph - N/A   Overcast
8:55 AM 17.6 °F 3.2 °F 14.0 °F 86% 30.07 in 10.0 mi South 15.0 mph - N/A   Overcast
9:15 AM 18.1 °F 5.6 °F 14.5 °F 86% 30.07 in 10.0 mi SSW 11.5 mph - N/A   Overcast
9:35 AM 18.5 °F 5.5 °F 14.9 °F 86% 30.07 in 10.0 mi South 12.7 mph - N/A   Overcast
9:55 AM 19.0 °F 5.6 °F 15.3 °F 85% 30.07 in 10.0 mi SSW 13.8 mph - N/A   Overcast
10:15 AM 19.9 °F 8.6 °F 15.8 °F 84% 30.06 in 10.0 mi SSW 10.4 mph - N/A   Overcast
10:35 AM 20.3 °F 7.7 °F 15.8 °F 83% 30.05 in 10.0 mi SSW 12.7 mph - N/A   Overcast
10:55 AM 20.8 °F 8.4 °F 16.3 °F 83% 30.03 in 10.0 mi SSW 12.7 mph - N/A   Overcast
11:15 AM 21.2 °F 9.5 °F 16.5 °F 82% 30.03 in 10.0 mi SW 11.5 mph - N/A   Overcast
11:35 AM 21.9 °F 9.2 °F 16.5 °F 80% 30.02 in 10.0 mi SW 13.8 mph 18.4 mph N/A   Overcast
11:55 AM 22.6 °F 9.6 °F 16.3 °F 77% 30.00 in 10.0 mi SW 15.0 mph 20.7 mph N/A   Overcast
12:15 PM 22.8 °F 10.4 °F 16.2 °F 76% 29.99 in 10.0 mi SW 13.8 mph - N/A   Overcast
12:35 PM 23.7 °F 10.1 °F 15.8 °F 72% 29.98 in 10.0 mi WSW 17.3 mph - N/A   Overcast
12:55 PM 23.9 °F 10.3 °F 16.0 °F 72% 29.96 in 10.0 mi SW 17.3 mph 24.2 mph N/A   Mostly Cloudy
1:15 PM 23.9 °F 11.7 °F 16.7 °F 74% 29.96 in 10.0 mi WSW 13.8 mph - N/A   Mostly Cloudy
1:35 PM 24.8 °F 11.5 °F 17.1 °F 72% 29.96 in 10.0 mi SW 17.3 mph 20.7 mph N/A   Overcast
1:55 PM 24.8 °F 12.4 °F 17.1 °F 72% 29.95 in 10.0 mi SW 15.0 mph 20.7 mph N/A   Overcast
2:15 PM 26.1 °F 12.0 °F 18.0 °F 71% 29.94 in 10.0 mi SW 20.7 mph 25.3 mph N/A   Mostly Cloudy
2:35 PM 26.6 °F 13.8 °F 17.8 °F 69% 29.96 in 10.0 mi WSW 17.3 mph 21.9 mph N/A   Mostly Cloudy
2:55 PM 26.6 °F 14.3 °F 18.3 °F 71% 29.96 in 10.0 mi WSW 16.1 mph - N/A   Mostly Cloudy
3:15 PM 28.2 °F 16.3 °F 19.0 °F 68% 29.96 in 10.0 mi WSW 16.1 mph - N/A   Overcast
3:35 PM 28.0 °F 17.5 °F 18.7 °F 68% 29.95 in 10.0 mi West 12.7 mph 18.4 mph N/A   Overcast
3:55 PM 28.4 °F 17.5 °F 18.5 °F 66% 29.95 in 10.0 mi West 13.8 mph - N/A   Overcast
4:15 PM 28.8 °F 19.0 °F 17.6 °F 63% 29.95 in 10.0 mi West 11.5 mph 18.4 mph N/A   Overcast
4:35 PM 28.4 °F 16.6 °F 17.4 °F 63% 29.96 in 10.0 mi West 16.1 mph 20.7 mph N/A   Overcast
4:55 PM 28.0 °F 15.7 °F 17.6 °F 65% 29.97 in 10.0 mi WNW 17.3 mph 24.2 mph N/A   Overcast
5:15 PM 26.1 °F 14.5 °F 16.7 °F 68% 29.99 in 10.0 mi WNW 13.8 mph - N/A   Overcast
5:35 PM 25.7 °F 13.5 °F 16.9 °F 69% 30.00 in 10.0 mi NW 15.0 mph 21.9 mph N/A   Overcast
5:55 PM 24.8 °F 12.9 °F 17.1 °F 72% 30.01 in 10.0 mi NW 13.8 mph - N/A   Overcast
6:15 PM 23.9 °F 11.7 °F 16.7 °F 74% 30.02 in 10.0 mi NW 13.8 mph 18.4 mph N/A   Overcast
6:35 PM 23.9 °F 13.5 °F 17.1 °F 75% 30.03 in 10.0 mi WNW 10.4 mph 16.1 mph N/A   Overcast
6:55 PM 23.5 °F 13.0 °F 16.5 °F 75% 30.04 in 10.0 mi WNW 10.4 mph 17.3 mph N/A   Overcast
7:15 PM 23.0 °F 10.1 °F 15.8 °F 74% 30.04 in 10.0 mi WNW 15.0 mph 18.4 mph N/A   Overcast
7:35 PM 22.6 °F 11.3 °F 15.3 °F 73% 30.04 in 10.0 mi WNW 11.5 mph - N/A   Overcast
7:55 PM 22.1 °F 10.6 °F 14.9 °F 74% 30.05 in 10.0 mi WNW 11.5 mph - N/A   Overcast
8:15 PM 20.7 °F 8.8 °F 14.0 °F 75% 30.05 in 10.0 mi WNW 11.5 mph - N/A   Scattered Clouds
8:35 PM 20.3 °F 9.8 °F 14.0 °F 77% 30.07 in 10.0 mi WNW 9.2 mph - N/A   Mostly Cloudy
8:55 PM 20.8 °F 11.2 °F 14.9 °F 78% 30.06 in 7.0 mi WNW 8.1 mph - N/A Snow Light Snow
9:15 PM 21.2 °F 11.7 °F 15.8 °F 80% 30.08 in 10.0 mi WNW 8.1 mph - N/A Snow Light Snow
9:35 PM 21.4 °F 8.5 °F 15.3 °F 77% 30.09 in 10.0 mi WNW 13.8 mph - N/A   Overcast
9:55 PM 21.2 °F 9.5 °F 15.4 °F 78% 30.09 in 5.0 mi WNW 11.5 mph - N/A Snow Light Snow
10:15 PM 20.8 °F 7.3 °F 14.4 °F 76% 30.11 in 7.0 mi NNW 15.0 mph 24.2 mph N/A Snow Light Snow
10:35 PM 20.3 °F 7.2 °F 11.8 °F 70% 30.12 in 10.0 mi NNW 13.8 mph 20.7 mph N/A   Overcast
10:55 PM 19.9 °F 8.6 °F 9.7 °F 64% 30.13 in 10.0 mi NW 10.4 mph 20.7 mph N/A   Overcast
11:15 PM 18.1 °F 5.6 °F 7.7 °F 64% 30.14 in 10.0 mi NW 11.5 mph 19.6 mph N/A   Mostly Cloudy
11:35 PM 17.1 °F 5.8 °F 7.5 °F 66% 30.16 in 10.0 mi NNW 9.2 mph - N/A   Clear
11:55 PM 16.3 °F 2.1 °F 7.3 °F 68% 30.17 in 10.0 mi NNW 13.8 mph 18.4 mph N/A   Clear